Other Public Products
Issued by NWS Grand Forks, ND

Home | Current Version | Previous Version | Text Only | Print | Product List | Glossary Off
Versions: 1 2 3 4 5 6 7 8 9 10 11 12 13 14 15 16 17 18 19 20 21 22 23 24 25 26 27 28 29 30 31 32 33 34 35 36 37 38 39 40 41 42 43 44 45 46 47 48 49 50

000
FPUS83 KFGF 201110
OPUFGF
PRAIRIE TO PINES WEATHER ROUNDUP
NATIONAL WEATHER SERVICE EASTERN NORTH DAKOTA/GRAND FORKS ND
500 AM CST THU NOV 20 2014

 **SATELLITE DATA USED TO AUGMENT SKY COVER AT AUTOMATED STATIONS**
 *****  WEATHER ACROSS EASTERN NORTH DAKOTA  *****

CITY           SKY/WX    TMP DP  RH WIND       PRES   REMARKS
GRAND FORKS    CLEAR      2  -5  72 W7        30.07S WCI -11
GRAND FORKS AF CLEAR      2  -3  80 NW8       30.08R WCI -11
GRAND CITY NWS   N/A      3 N/A N/A NW7         N/A  WCI  -9
BUXTON         NOT AVBL
DEVILS LAKE    CLEAR      5  -6  61 NW9       30.03R WCI  -9
FARGO          CLEAR      6   0  76 NW8       30.08R WCI  -7
WAHPETON ARPT  FAIR       0  -4  85 W6        30.09R WCI -12
$$

 *****  WEATHER ACROSS CENTRAL AND WESTERN NORTH DAKOTA  *****

CITY           SKY/WX    TMP DP  RH WIND       PRES   REMARKS
JAMESTOWN      CLEAR      6   2  83 NW9       30.06R WCI  -8
BISMARCK       CLOUDY    15   9  76 NW5       30.10S WCI   8
MINOT          PTCLDY     4  -1  80 SW8       30.06S WCI  -9
MINOT AFB      CLEAR      2  -2  84 W8        30.06S WCI -12
GARRISON         N/A      6   2  83 NW7       30.06S WCI  -6
WILLISTON      CLOUDY    12   5  73 W7        30.05F WCI   1
DICKINSON      CLOUDY    11   6  81 W7        29.99F WCI   0
HETTINGER      CLOUDY    13   8  81 NW5       30.03F WCI   5
$$

 *****  OTHER OBSERVATIONS NORTHEAST NORTH DAKOTA  *****

CITY           SKY/WX    TMP DP  RH WIND       PRES   REMARKS
WALHALLA         N/A      3  -2  78 W6        30.07R WCI  -8
LANGDON        FAIR       0  -4  85 NW9       30.01S WCI -16
CAVALIER       FAIR       1  -4  78 W8        30.07R WCI -12
GRAFTON        FAIR       3  -2  78 NW9       30.08R WCI -11
CANDO          FAIR       1   0  92 W8        30.05S WCI -12
FORT TOTTEN      N/A      6   2  83 NW5       29.95  WCI  -3
ROLLA          FAIR       5   1  85 NW9       30.02S WCI  -9
RUGBY          FAIR       0  -2  92 W8        30.06R WCI -15
 ***** THE ABOVE OBSERVATIONS ARE NON NWS ARE NOT QUALITY
        CONTROLLED AND MAY MIS-REPORT RAIN FOR SNOW...
$$

 *****  OTHER OBSERVATIONS SOUTHEAST NORTH DAKOTA *****

CITY           SKY/WX    TMP DP  RH WIND       PRES   REMARKS
COOPERSTOWN    NOT AVBL
VALLEY CITY    FAIR       5   3  92 NW10      30.06R WCI -10
OAKES            N/A      5   1  85 W7        30.08S WCI  -7
GWINNER        SUNNY     10   3  72 NW13      30.08S WCI  -5
SHEYENNE NWR     N/A      4  -1  81 W5        29.95S WCI  -5
BUFFALO        NOT AVBL
WYNDMERE       NOT AVBL
 ***** THE ABOVE OBSERVATIONS ARE NON NWS ARE NOT QUALITY
       CONTROLLED AND MAY MIS-REPORT RAIN FOR SNOW...
$$

  *****  WEATHER ACROSS NORTHERN MINNESOTA  *****

CITY           SKY/WX    TMP DP  RH WIND       PRES   REMARKS
FLAG ISLAND    CLEAR      3  -2  78 NW24      29.94R WCI -20
WARROAD        PTCLDY     0  -6  78 W8        29.97S WCI -15
ROSEAU         PTCLDY     0  -6  78 W10       29.99R WCI -17
HALLOCK        CLEAR     -4  -9  77 NW5       30.05R WCI -15
THF RVR FALLS  CLEAR      1  -6  71 W9        30.01S WCI -14
HALSTAD          N/A     -1  -6  79 W6          N/A  WCI -12
FOSSTON        CLEAR     -4  -8  84 CALM      30.01R
BAUDETTE       MOCLDY     1  -4  79 NW8       29.92R WCI -13
WASKISH        CLEAR      1  -2  85 W9        29.94R WCI -14
CROOKSTON      CLEAR      0  -6  78 W10       30.07R WCI -17
$$
  *****  WEATHER ACROSS CENTRAL AND WEST MINNESOTA  *****

CITY           SKY/WX    TMP DP  RH WIND       PRES   REMARKS
BEMIDJI        CLEAR      0  -5  78 W9        29.95S WCI -15
PARK RAPIDS    CLEAR      2  -4  76 NW13      29.96S WCI -15
WADENA         CLEAR      3  -4  72 NW9       29.99S WCI -11
DETROIT LAKES  CLEAR      5   0  78 NW7       30.02S WCI  -7
MOORHEAD       NOT AVBL
FERGUS FALLS   CLEAR      1  -2  85 NW7       30.09S WCI -11
ELBOW LAKE       N/A      2   0  88 NW6       30.04S WCI  -9
MORRIS MN      CLEAR      1  -2  85 NW6       30.05S WCI -10
STAPLES        CLEAR      3  -4  72 NW12      29.98S WCI -13
WHEATON        CLEAR      3   1  92 W3        30.10S
$$
  *****  WEATHER ELSEWHERE ACROSS MINNESOTA  *****

CITY           SKY/WX    TMP DP  RH WIND       PRES   REMARKS
DULUTH         PTCLDY     5  -2  72 W12       29.84S WCI -11
INTRNTL FALLS  CLOUDY     6  -1  73 NW13      29.86R WCI -10
ELY            LGT SNOW   3   0  85 W8        29.79R WCI -10
CLOQUET        CLEAR      7   0  72 W9G16     29.88R WCI  -7
BRAINERD       CLEAR      6  -2  69 NW17      29.97R WCI -13
HIBBING        CLEAR      4  -3  73 W9        29.86R WCI -10
ALEXANDRIA     CLEAR      3  -1  83 W7        30.02R WCI  -9
SAINT CLOUD    CLEAR      9  -3  58 NW13      30.00R WCI  -7
MINNEAPOLIS    CLEAR     12   1  61 W10       30.02R WCI  -1
$$

  *****  WEATHER ACROSS SOUTH DAKOTA  *****

CITY           SKY/WX    TMP DP  RH WIND       PRES   REMARKS
SIOUX FALLS    CLEAR      5   2  87 W7        30.11R WCI  -7
BROOKINGS      NOT AVBL
WATERTOWN      PTCLDY     5   1  83 W10       30.05S WCI -10
HURON          PTCLDY     2  -2  83 W9        30.13S WCI -13
SISSETON         N/A      8   3  80 NW8       30.07S WCI  -4
ABERDEEN       PTCLDY     7   1  76 NW8       30.11R WCI  -6
MITCHELL       CLOUDY    14   8  77 W6        30.16R WCI   5
PIERRE         CLOUDY    17  11  77 SW5       30.11S WCI  10
MOBRIDGE       CLOUDY    12   8  84 NW3       30.07S
RAPID CITY     MOCLDY    11   9  92 CALM      30.00F
$$

  *****  SOME WEATHER IN NEARBY STATES *****

CITY           SKY/WX    TMP DP  RH WIND       PRES   REMARKS
GLASGOW MT     CLOUDY    16  11  80 SE15      29.98F WCI   1
GREAT FALLS MT CLEAR     29  18  63 S13       29.84F WCI  19
CHEYENNE WY    PTCLDY    23  10  57 NW5       29.97S WCI  17
SCOTTSBLUFF NE PTCLDY    15  12  88 NW7       30.00S WCI   5
OMAHA NE       CLEAR     17  11  77 W8        30.19S WCI   7
DES MOINES IA  PTCLDY    19  10  68 W8        30.14S WCI   9
DAVENPORT IA   CLEAR     16   9  74 W10       30.08S WCI   4
CHICAGO IL     CLEAR     18  11  74 W14       29.99S WCI   4
EAU CLAIRE WI  CLEAR     12   3  67 W9        29.94R WCI   0
LA CROSSE WI   CLEAR     17   8  67 W14       30.00R WCI   3
$$

  *****  SOME NATIONAL WEATHER *****

CITY           SKY/WX    TMP DP  RH WIND       PRES   REMARKS
LA GUARDIA NY  MOCLDY    37  18  46 SW9       29.96F
RALEIGH NC     CLEAR     30  17  58 SW5       30.14F
ATLANTA GA     CLEAR     34  21  59 SW6       30.21R
NEW ORLEANS LA CLEAR     44  41  89 CALM      30.25S
OKLAHOMA CITY  PTCLDY    34  24  67 E6        30.10F
ALBUQUERQUE NM CLEAR     32  11  41 CALM      30.12F
SALT LAKE CITY PTCLDY    29  25  85 CALM      30.10S
LOS ANGELES CA PTCLDY    56  50  80 E3        30.09S
BOISE ID       CLOUDY    17  14  88 CALM      30.15F FOG
SEATTLE WA     LGT RAIN  42  38  85 SE7       29.93R
$$

*** WEATHER ACROSS MANITOBA...SASKATCHEWAN AND ONTARIO ***
                ***ONTARIO***

CITY           SKY/WX    TMP DP  RH WIND       PRES   REMARKS
GERALDTON      FLURRIES   1  -2  85 N5        29.69R WCI  -8
THUNDER BAY    PTCLDY     1  -2  85 NW7       29.81R WCI -11
SIOUX LOOKOUT  FLURRIES  -8 -13  77 NW7       29.83R WCI -22
TORONTO        PTCLDY    23  14  68 SW21G29   29.75R WCI   8
BIG TROUT LK   FLURRIES  -8 -13  77 NW12G20   29.77R WCI -27
PICKLE LAKE    FLURRIES  -8 -15  71 W9        29.74  WCI -25
DRYDEN         FLURRIES  -6  -9  84 NW6       29.85R WCI -18
KENORA         PTCLDY     0  -6  78 NW13G20   29.89R WCI -18
$$
                *** MANITOBA***

CITY           SKY/WX    TMP DP  RH WIND       PRES   REMARKS
BRANDON        CLEAR      0  -4  85 NW6       30.05S WCI -12
DAUPHIN        CLEAR      0  -4  85 W7        30.06S WCI -13
ISLAND LAKE    CLEAR    -11 -20  64 NW9       29.94R WCI -29
PILOT MOUND      N/A      0  -4  85 W5          N/A  WCI -10
THE PAS        CLEAR     -2  -6  84 CALM      30.02F
THOMPSON       CLEAR    -22 -27  76 SW2       29.95F
WINNIPEG       CLEAR     -4 -11  71 NW13      30.05R WCI -23
LYNN LAKE      CLEAR    -15 -18  84 W7        29.91F WCI -31
GILLAM         CLEAR    -11 -17  77 NW14G21   29.89S WCI -33
$$
                ***SASKATCHEWAN***

CITY           SKY/WX    TMP DP  RH WIND       PRES   REMARKS
ESTEVAN        FLURRIES  12   7  79 NW2       30.03F
KINDERSLEY     MOCLDY    21  19  93 S10       29.87F FOG     WCI  10
LLOYDMINSTER   NOT AVBL
PRINCE ALBERT  CRYSTALS  -6  -9  84 CALM      29.97F
REGINA         FLURRIES  12   7  79 SW7       30.00F WCI   2
YORKTON        CLEAR      1  -2  85 SW7       30.02S WCI -11


USA.gov is the U.S. government's official web portal to all federal, state and local government web resources and services.